Station Historical Data
Daily Summary for March 14, 2017 Units:  Metric    English   Both
« Previous Day
Next Day »
Daily Weekly Monthly Yearly Custom
  High: Low: Average:
Temperature: -6.2 °C -8.8 °C -7.4 °C
Dew Point: -8.2 °C -10.6 °C -9.3 °C
Humidity: 88% 83% 87%
Wind Speed: 19.3km/h 3.2km/h 9.2km/h
Wind Gust: 29km/h - -
Wind- - SSE
Pressure: 1023.9 hPa 1011.7 hPa -
Precipitation: 0 mm    
Historical Graphs
 
 
Tabular Data for March 14, 2017
Time Temperature Dew Point Pressure Wind Wind Speed Wind Gust Humidity Rainfall Rate (Hourly)
00:04 -8.1 °C -9.8 °C 1023.9 hPa NE 11.3 km/h 19.3 km/h 87% 0 mm
00:09 -8.1 °C -9.8 °C 1023.9 hPa NE 9.7 km/h 19.3 km/h 87% 0 mm
00:14 -8.1 °C -9.8 °C 1023.9 hPa NE 9.7 km/h 19.3 km/h 87% 0 mm
00:19 -8 °C -9.8 °C 1023.9 hPa NE 9.7 km/h 19.3 km/h 87% 0 mm
00:24 -8 °C -9.8 °C 1023.9 hPa NE 8 km/h 17.7 km/h 87% 0 mm
00:29 -8 °C -9.8 °C 1023.6 hPa NE 9.7 km/h 19.3 km/h 87% 0 mm
00:34 -8 °C -9.8 °C 1023.6 hPa NE 9.7 km/h 19.3 km/h 87% 0 mm
00:39 -8 °C -9.8 °C 1023.6 hPa NNE 8 km/h 20.9 km/h 87% 0 mm
00:44 -8 °C -9.8 °C 1023.2 hPa NE 12.9 km/h 17.7 km/h 87% 0 mm
00:49 -7.9 °C -9.7 °C 1023.2 hPa NE 17.7 km/h 17.7 km/h 87% 0 mm
00:54 -7.9 °C -9.7 °C 1023.2 hPa NNE 11.3 km/h 22.5 km/h 87% 0 mm
00:59 -7.9 °C -9.7 °C 1023.2 hPa NE 6.4 km/h 17.7 km/h 87% 0 mm
01:04 -7.9 °C -9.7 °C 1023.2 hPa NE 9.7 km/h 16.1 km/h 87% 0 mm
01:09 -7.9 °C -9.7 °C 1022.9 hPa NE 8 km/h 16.1 km/h 87% 0 mm
01:14 -7.9 °C -9.7 °C 1022.9 hPa NE 9.7 km/h 20.9 km/h 87% 0 mm
01:19 -7.9 °C -9.7 °C 1022.9 hPa NE 9.7 km/h 20.9 km/h 87% 0 mm
01:24 -7.9 °C -9.7 °C 1022.6 hPa NE 9.7 km/h 17.7 km/h 87% 0 mm
01:29 -7.9 °C -9.7 °C 1022.6 hPa NE 9.7 km/h 17.7 km/h 87% 0 mm
01:34 -7.9 °C -9.6 °C 1022.6 hPa NE 8 km/h 16.1 km/h 88% 0 mm
01:39 -7.9 °C -9.7 °C 1022.6 hPa NE 11.3 km/h 17.7 km/h 87% 0 mm
01:44 -7.9 °C -9.7 °C 1022.2 hPa NE 11.3 km/h 20.9 km/h 87% 0 mm
01:49 -7.9 °C -9.7 °C 1022.2 hPa NE 9.7 km/h 20.9 km/h 87% 0 mm
01:54 -7.9 °C -9.7 °C 1022.2 hPa NE 9.7 km/h 20.9 km/h 87% 0 mm
01:59 -7.8 °C -9.5 °C 1022.2 hPa NE 8 km/h 16.1 km/h 88% 0 mm
02:04 -7.8 °C -9.5 °C 1022.2 hPa NE 16.1 km/h 16.1 km/h 88% 0 mm
02:09 -7.8 °C -9.5 °C 1022.2 hPa NE 8 km/h 17.7 km/h 88% 0 mm
02:14 -7.8 °C -9.4 °C 1022.2 hPa NE 12.9 km/h 12.9 km/h 88% 0 mm
02:19 -7.8 °C -9.4 °C 1022.2 hPa NE 9.7 km/h 17.7 km/h 88% 0 mm
02:24 -7.8 °C -9.4 °C 1021.9 hPa NE 8 km/h 16.1 km/h 88% 0 mm
02:29 -7.8 °C -9.4 °C 1022.2 hPa East 9.7 km/h 19.3 km/h 88% 0 mm
02:34 -7.8 °C -9.4 °C 1021.9 hPa ENE 4.8 km/h 20.9 km/h 88% 0 mm
02:39 -7.7 °C -9.4 °C 1021.9 hPa NE 9.7 km/h 20.9 km/h 88% 0 mm
02:44 -7.7 °C -9.4 °C 1021.9 hPa NE 9.7 km/h 20.9 km/h 88% 0 mm
02:49 -7.7 °C -9.3 °C 1021.9 hPa NE 9.7 km/h 20.9 km/h 88% 0 mm
02:54 -7.6 °C -9.3 °C 1021.9 hPa NE 9.7 km/h 19.3 km/h 88% 0 mm
02:59 -7.6 °C -9.3 °C 1021.6 hPa NE 8 km/h 20.9 km/h 88% 0 mm
03:04 -7.6 °C -9.2 °C 1021.6 hPa NE 11.3 km/h 19.3 km/h 88% 0 mm
03:09 -7.6 °C -9.2 °C 1021.6 hPa NE 8 km/h 17.7 km/h 88% 0 mm
03:14 -7.5 °C -9.2 °C 1021.6 hPa NE 8 km/h 17.7 km/h 88% 0 mm
03:19 -7.5 °C -9.2 °C 1021.2 hPa NE 8 km/h 17.7 km/h 88% 0 mm
03:24 -7.4 °C -9.1 °C 1021.2 hPa NE 9.7 km/h 20.9 km/h 88% 0 mm
03:29 -7.4 °C -9.1 °C 1020.9 hPa NE 9.7 km/h 16.1 km/h 88% 0 mm
03:34 -7.4 °C -9.1 °C 1020.9 hPa NE 8 km/h 12.9 km/h 88% 0 mm
03:39 -7.3 °C -9 °C 1020.9 hPa NE 4.8 km/h 20.9 km/h 88% 0 mm
03:44 -7.3 °C -9 °C 1020.5 hPa NE 4.8 km/h 14.5 km/h 88% 0 mm
03:49 -7.3 °C -9 °C 1020.5 hPa NE 3.2 km/h 14.5 km/h 88% 0 mm
03:54 -7.3 °C -9 °C 1020.5 hPa NE 8 km/h 20.9 km/h 88% 0 mm
03:59 -7.3 °C -9 °C 1020.2 hPa NE 9.7 km/h 20.9 km/h 88% 0 mm
04:04 -7.3 °C -9 °C 1020.2 hPa NE 9.7 km/h 19.3 km/h 88% 0 mm
04:09 -7.3 °C -9 °C 1020.2 hPa NE 8 km/h 14.5 km/h 88% 0 mm
04:14 -7.4 °C -9.1 °C 1020.2 hPa NNE 9.7 km/h 17.7 km/h 88% 0 mm
04:19 -7.4 °C -9.1 °C 1019.9 hPa NE 6.4 km/h 19.3 km/h 88% 0 mm
04:24 -7.4 °C -9.1 °C 1019.9 hPa NE 9.7 km/h 16.1 km/h 88% 0 mm
04:29 -7.4 °C -9.1 °C 1020.2 hPa NNE 6.4 km/h 19.3 km/h 88% 0 mm
04:34 -7.5 °C -9.2 °C 1020.2 hPa NNE 12.9 km/h 17.7 km/h 88% 0 mm
04:39 -7.6 °C -9.2 °C 1019.9 hPa NE 11.3 km/h 17.7 km/h 88% 0 mm
04:44 -7.6 °C -9.2 °C 1019.9 hPa ENE 14.5 km/h 17.7 km/h 88% 0 mm
04:49 -7.6 °C -9.3 °C 1019.9 hPa NE 11.3 km/h 24.1 km/h 88% 0 mm
04:54 -7.6 °C -9.3 °C 1019.9 hPa NE 11.3 km/h 24.1 km/h 88% 0 mm
04:59 -7.7 °C -9.3 °C 1019.9 hPa NE 9.7 km/h 19.3 km/h 88% 0 mm
05:04 -7.7 °C -9.3 °C 1019.5 hPa NE 9.7 km/h 19.3 km/h 88% 0 mm
05:09 -7.7 °C -9.3 °C 1019.5 hPa NE 9.7 km/h 29 km/h 88% 0 mm
05:14 -7.7 °C -9.4 °C 1019.9 hPa NE 8 km/h 29 km/h 88% 0 mm
05:19 -7.7 °C -9.4 °C 1019.5 hPa NE 8 km/h 19.3 km/h 88% 0 mm
05:24 -7.8 °C -9.5 °C 1019.9 hPa NE 9.7 km/h 25.7 km/h 88% 0 mm
05:29 -7.8 °C -9.5 °C 1019.5 hPa NNE 6.4 km/h 17.7 km/h 88% 0 mm
05:34 -7.9 °C -9.6 °C 1019.5 hPa NNW 4.8 km/h 16.1 km/h 88% 0 mm
05:39 -7.9 °C -9.6 °C 1019.5 hPa NE 4.8 km/h 22.5 km/h 88% 0 mm
05:44 -8 °C -9.6 °C 1019.5 hPa NNE 8 km/h 17.7 km/h 88% 0 mm
05:49 -8 °C -9.6 °C 1019.5 hPa NNE 4.8 km/h 20.9 km/h 88% 0 mm
05:54 -8 °C -9.6 °C 1019.5 hPa NE 12.9 km/h 16.1 km/h 88% 0 mm
05:59 -8.1 °C -9.7 °C 1019.5 hPa NE 8 km/h 19.3 km/h 88% 0 mm
06:04 -8.1 °C -9.7 °C 1019.5 hPa NE 9.7 km/h 19.3 km/h 88% 0 mm
06:09 -8.1 °C -9.7 °C 1019.5 hPa NE 6.4 km/h 22.5 km/h 88% 0 mm
06:14 -8.1 °C -9.7 °C 1019.2 hPa NNE 8 km/h 19.3 km/h 88% 0 mm
06:19 -8.1 °C -9.7 °C 1019.2 hPa NNE 9.7 km/h 14.5 km/h 88% 0 mm
06:24 -8.2 °C -9.9 °C 1019.2 hPa NE 11.3 km/h 19.3 km/h 87% 0 mm
06:29 -8.2 °C -9.8 °C 1019.2 hPa NNE 8 km/h 16.1 km/h 88% 0 mm
06:34 -8.2 °C -9.8 °C 1019.2 hPa NE 9.7 km/h 24.1 km/h 88% 0 mm
06:39 -8.2 °C -9.8 °C 1019.2 hPa NE 9.7 km/h 24.1 km/h 88% 0 mm
06:44 -8.2 °C -9.8 °C 1019.2 hPa NE 9.7 km/h 17.7 km/h 88% 0 mm
06:49 -8.2 °C -9.8 °C 1019.2 hPa NE 8 km/h 16.1 km/h 88% 0 mm
06:54 -8.1 °C -9.7 °C 1018.8 hPa NE 3.2 km/h 17.7 km/h 88% 0 mm
06:59 -8.2 °C -9.8 °C 1018.8 hPa NNE 8 km/h 20.9 km/h 88% 0 mm
07:04 -8.2 °C -9.8 °C 1018.5 hPa NE 9.7 km/h 20.9 km/h 88% 0 mm
07:09 -8.1 °C -9.7 °C 1018.8 hPa NE 9.7 km/h 17.7 km/h 88% 0 mm
07:14 -8.2 °C -9.8 °C 1018.5 hPa North 9.7 km/h 16.1 km/h 88% 0 mm
07:19 -8.1 °C -9.7 °C 1018.5 hPa North 11.3 km/h 16.1 km/h 88% 0 mm
07:24 -8.1 °C -9.7 °C 1018.5 hPa NE 8 km/h 14.5 km/h 88% 0 mm
07:29 -8.2 °C -9.8 °C 1018.5 hPa North 4.8 km/h 19.3 km/h 88% 0 mm
07:34 -8.1 °C -9.7 °C 1018.2 hPa NE 12.9 km/h 22.5 km/h 88% 0 mm
07:39 -8.1 °C -9.7 °C 1018.2 hPa NNE 8 km/h 22.5 km/h 88% 0 mm
07:44 -8.2 °C -9.8 °C 1018.2 hPa NNE 9.7 km/h 20.9 km/h 88% 0 mm
07:49 -8.2 °C -9.8 °C 1018.2 hPa NNE 9.7 km/h 17.7 km/h 88% 0 mm
07:54 -8.1 °C -9.7 °C 1018.2 hPa NNE 8 km/h 22.5 km/h 88% 0 mm
07:59 -8.1 °C -9.7 °C 1018.2 hPa NNE 8 km/h 22.5 km/h 88% 0 mm
08:04 -8.1 °C -9.7 °C 1018.2 hPa NNE 9.7 km/h 22.5 km/h 88% 0 mm
08:09 -8.1 °C -9.7 °C 1018.2 hPa NE 11.3 km/h 19.3 km/h 88% 0 mm
08:14 -8.1 °C -9.7 °C 1018.2 hPa North 6.4 km/h 20.9 km/h 88% 0 mm
08:19 -8.1 °C -9.7 °C 1018.2 hPa NNE 9.7 km/h 22.5 km/h 88% 0 mm
08:24 -8 °C -9.6 °C 1018.2 hPa NNE 6.4 km/h 14.5 km/h 88% 0 mm
08:29 -7.9 °C -9.6 °C 1018.2 hPa NE 8 km/h 16.1 km/h 88% 0 mm
08:34 -7.9 °C -9.6 °C 1018.2 hPa NNE 9.7 km/h 16.1 km/h 88% 0 mm
08:39 -7.9 °C -9.6 °C 1017.8 hPa NNE 11.3 km/h 22.5 km/h 88% 0 mm
08:44 -7.9 °C -9.7 °C 1017.8 hPa NNE 9.7 km/h 19.3 km/h 87% 0 mm
08:49 -7.9 °C -9.7 °C 1018.2 hPa NNE 11.3 km/h 20.9 km/h 87% 0 mm
08:54 -7.9 °C -9.6 °C 1017.8 hPa NNE 11.3 km/h 24.1 km/h 88% 0 mm
08:59 -7.9 °C -9.7 °C 1017.8 hPa NNE 11.3 km/h 24.1 km/h 87% 0 mm
09:04 -7.8 °C -9.5 °C 1017.8 hPa NNE 11.3 km/h 24.1 km/h 88% 0 mm
09:09 -7.8 °C -9.5 °C 1017.5 hPa NNE 11.3 km/h 24.1 km/h 88% 0 mm
09:14 -7.8 °C -9.6 °C 1017.5 hPa NNE 9.7 km/h 19.3 km/h 87% 0 mm
09:19 -7.8 °C -9.6 °C 1017.5 hPa NNE 11.3 km/h 17.7 km/h 87% 0 mm
09:24 -7.8 °C -9.6 °C 1017.5 hPa NNE 9.7 km/h 29 km/h 87% 0 mm
09:29 -7.7 °C -9.5 °C 1017.5 hPa NNE 8 km/h 17.7 km/h 87% 0 mm
09:34 -7.7 °C -9.4 °C 1017.5 hPa NE 16.1 km/h 19.3 km/h 87% 0 mm
09:39 -7.6 °C -9.3 °C 1017.2 hPa NNE 11.3 km/h 17.7 km/h 87% 0 mm
09:44 -7.6 °C -9.3 °C 1017.2 hPa North 11.3 km/h 17.7 km/h 87% 0 mm
09:49 -7.4 °C -9.2 °C 1017.2 hPa NNE 11.3 km/h 20.9 km/h 87% 0 mm
09:54 -7.4 °C -9.4 °C 1017.2 hPa NNE 11.3 km/h 20.9 km/h 86% 0 mm
09:59 -7.4 °C -9.3 °C 1017.2 hPa NNE 11.3 km/h 19.3 km/h 86% 0 mm
10:04 -7.3 °C -9.3 °C 1017.2 hPa NNE 11.3 km/h 27.4 km/h 86% 0 mm
10:09 -7.3 °C -9.2 °C 1017.2 hPa NNE 9.7 km/h 27.4 km/h 86% 0 mm
10:14 -7.2 °C -9.2 °C 1016.8 hPa NNE 11.3 km/h 27.4 km/h 86% 0 mm
10:19 -7.1 °C -9.1 °C 1016.8 hPa NNE 8 km/h 16.1 km/h 86% 0 mm
10:24 -7.1 °C -9.2 °C 1016.5 hPa NNE 6.4 km/h 17.7 km/h 85% 0 mm
10:30 -7.1 °C -9.2 °C 1016.1 hPa NNE 11.3 km/h 20.9 km/h 85% 0 mm
10:39 -6.9 °C -9 °C 1016.1 hPa NNE 9.7 km/h 17.7 km/h 85% 0 mm
10:44 -6.8 °C -8.9 °C 1016.5 hPa NNE 8 km/h 17.7 km/h 85% 0 mm
10:49 -6.9 °C -9.1 °C 1016.5 hPa NNE 14.5 km/h 17.7 km/h 85% 0 mm
10:54 -7 °C -9.1 °C 1016.5 hPa North 12.9 km/h 17.7 km/h 85% 0 mm
10:59 -7 °C -9.1 °C 1016.5 hPa NE 11.3 km/h 22.5 km/h 85% 0 mm
11:04 -6.8 °C -8.9 °C 1016.5 hPa NNE 9.7 km/h 22.5 km/h 85% 0 mm
11:09 -6.8 °C -8.9 °C 1016.5 hPa NNE 8 km/h 19.3 km/h 85% 0 mm
11:14 -6.8 °C -9.1 °C 1016.1 hPa NNE 9.7 km/h 19.3 km/h 84% 0 mm
11:19 -6.8 °C -8.9 °C 1016.1 hPa NNE 11.3 km/h 20.9 km/h 85% 0 mm
11:24 -6.8 °C -8.9 °C 1016.1 hPa North 16.1 km/h 17.7 km/h 85% 0 mm
11:29 -6.8 °C -9.1 °C 1015.8 hPa NNE 6.4 km/h 20.9 km/h 84% 0 mm
11:34 -6.7 °C -8.8 °C 1016.1 hPa NNE 12.9 km/h 14.5 km/h 85% 0 mm
11:39 -6.7 °C -8.9 °C 1016.1 hPa NNE 9.7 km/h 17.7 km/h 84% 0 mm
11:44 -6.6 °C -8.9 °C 1015.8 hPa NNE 9.7 km/h 17.7 km/h 84% 0 mm
11:49 -6.6 °C -8.7 °C 1015.5 hPa NNE 6.4 km/h 16.1 km/h 85% 0 mm
11:54 -6.7 °C -8.9 °C 1015.8 hPa NNE 16.1 km/h 20.9 km/h 84% 0 mm
11:59 -6.7 °C -9 °C 1015.5 hPa NNE 14.5 km/h 20.9 km/h 84% 0 mm
12:04 -6.7 °C -9 °C 1015.5 hPa NNE 8 km/h 20.9 km/h 84% 0 mm
12:09 -6.7 °C -9.1 °C 1015.5 hPa NNE 16.1 km/h 20.9 km/h 83% 0 mm
12:14 -6.6 °C -9 °C 1015.5 hPa NNE 12.9 km/h 20.9 km/h 83% 0 mm
12:19 -6.3 °C -8.6 °C 1015.5 hPa NNE 9.7 km/h 17.7 km/h 84% 0 mm
12:24 -6.3 °C -8.6 °C 1015.5 hPa NNE 8 km/h 22.5 km/h 84% 0 mm
12:29 -6.3 °C -8.6 °C 1015.5 hPa NNE 9.7 km/h 22.5 km/h 84% 0 mm
12:34 -6.4 °C -8.7 °C 1015.1 hPa NNE 9.7 km/h 20.9 km/h 84% 0 mm
12:39 -6.2 °C -8.5 °C 1015.1 hPa NNE 9.7 km/h 17.7 km/h 84% 0 mm
12:44 -6.2 °C -8.4 °C 1015.1 hPa North 9.7 km/h 17.7 km/h 84% 0 mm
12:49 -6.4 °C -8.8 °C 1014.8 hPa North 9.7 km/h 25.7 km/h 83% 0 mm
12:54 -6.3 °C -8.6 °C 1014.8 hPa NNW 8 km/h 20.9 km/h 84% 0 mm
12:59 -6.3 °C -8.6 °C 1014.8 hPa North 8 km/h 16.1 km/h 84% 0 mm
13:04 -6.3 °C -8.6 °C 1014.8 hPa NNW 11.3 km/h 19.3 km/h 84% 0 mm
13:09 -6.3 °C -8.6 °C 1014.8 hPa NNE 4.8 km/h 19.3 km/h 84% 0 mm
13:14 -6.3 °C -8.6 °C 1014.4 hPa North 9.7 km/h 19.3 km/h 84% 0 mm
13:19 -6.3 °C -8.6 °C 1014.4 hPa North 9.7 km/h 24.1 km/h 84% 0 mm
13:24 -6.3 °C -8.6 °C 1014.4 hPa North 9.7 km/h 24.1 km/h 84% 0 mm
13:29 -6.3 °C -8.6 °C 1014.4 hPa North 9.7 km/h 20.9 km/h 84% 0 mm
13:34 -6.3 °C -8.6 °C 1014.1 hPa North 9.7 km/h 20.9 km/h 84% 0 mm
13:39 -6.3 °C -8.6 °C 1014.1 hPa NNW 14.5 km/h 17.7 km/h 84% 0 mm
13:44 -6.4 °C -8.7 °C 1014.1 hPa NNW 9.7 km/h 27.4 km/h 84% 0 mm
13:49 -6.4 °C -8.5 °C 1014.1 hPa North 11.3 km/h 27.4 km/h 85% 0 mm
13:54 -6.3 °C -8.4 °C 1014.1 hPa NNE 6.4 km/h 17.7 km/h 85% 0 mm
13:59 -6.3 °C -8.4 °C 1013.8 hPa NNW 11.3 km/h 20.9 km/h 85% 0 mm
14:04 -6.3 °C -8.4 °C 1013.8 hPa NNW 9.7 km/h 22.5 km/h 85% 0 mm
14:09 -6.3 °C -8.4 °C 1013.4 hPa North 6.4 km/h 24.1 km/h 85% 0 mm
14:14 -6.4 °C -8.5 °C 1013.4 hPa North 9.7 km/h 17.7 km/h 85% 0 mm
14:19 -6.3 °C -8.3 °C 1013.4 hPa North 9.7 km/h 20.9 km/h 86% 0 mm
14:24 -6.3 °C -8.2 °C 1013.4 hPa North 8 km/h 20.9 km/h 86% 0 mm
14:29 -6.3 °C -8.3 °C 1013.4 hPa North 8 km/h 20.9 km/h 86% 0 mm
14:34 -6.3 °C -8.4 °C 1013.4 hPa North 9.7 km/h 22.5 km/h 85% 0 mm
14:39 -6.3 °C -8.4 °C 1013.4 hPa North 9.7 km/h 22.5 km/h 85% 0 mm
14:44 -6.4 °C -8.6 °C 1013.4 hPa NNE 16.1 km/h 22.5 km/h 85% 0 mm
14:49 -6.4 °C -8.6 °C 1013.4 hPa North 11.3 km/h 25.7 km/h 85% 0 mm
14:54 -6.4 °C -8.6 °C 1013.4 hPa North 11.3 km/h 25.7 km/h 85% 0 mm
14:59 -6.4 °C -8.6 °C 1013.4 hPa North 9.7 km/h 24.1 km/h 85% 0 mm
15:04 -6.3 °C -8.4 °C 1013.4 hPa North 8 km/h 20.9 km/h 85% 0 mm
15:09 -6.2 °C -8.3 °C 1013.4 hPa North 6.4 km/h 17.7 km/h 85% 0 mm
15:14 -6.2 °C -8.3 °C 1013.4 hPa North 14.5 km/h 20.9 km/h 85% 0 mm
15:19 -6.3 °C -8.4 °C 1013.4 hPa NNW 4.8 km/h 19.3 km/h 85% 0 mm
15:24 -6.3 °C -8.4 °C 1013.4 hPa North 11.3 km/h 24.1 km/h 85% 0 mm
15:29 -6.3 °C -8.4 °C 1013.4 hPa North 9.7 km/h 24.1 km/h 85% 0 mm
15:34 -6.4 °C -8.5 °C 1013.4 hPa North 8 km/h 19.3 km/h 85% 0 mm
15:39 -6.4 °C -8.3 °C 1013.4 hPa North 8 km/h 17.7 km/h 86% 0 mm
15:44 -6.5 °C -8.4 °C 1013.4 hPa NW 8 km/h 14.5 km/h 86% 0 mm
15:49 -6.6 °C -8.5 °C 1013.1 hPa North 4.8 km/h 16.1 km/h 86% 0 mm
15:54 -6.6 °C -8.6 °C 1013.1 hPa North 9.7 km/h 24.1 km/h 86% 0 mm
15:59 -6.6 °C -8.6 °C 1013.1 hPa North 9.7 km/h 24.1 km/h 86% 0 mm
16:04 -6.6 °C -8.5 °C 1013.1 hPa North 9.7 km/h 20.9 km/h 86% 0 mm
16:09 -6.5 °C -8.4 °C 1013.1 hPa North 9.7 km/h 19.3 km/h 86% 0 mm
16:14 -6.5 °C -8.4 °C 1013.4 hPa NNE 8 km/h 24.1 km/h 86% 0 mm
16:19 -6.4 °C -8.4 °C 1013.4 hPa North 9.7 km/h 17.7 km/h 86% 0 mm
16:24 -6.4 °C -8.3 °C 1013.4 hPa NNE 8 km/h 16.1 km/h 86% 0 mm
16:29 -6.4 °C -8.3 °C 1013.1 hPa North 8 km/h 16.1 km/h 86% 0 mm
16:34 -6.4 °C -8.3 °C 1013.1 hPa North 9.7 km/h 19.3 km/h 86% 0 mm
16:39 -6.3 °C -8.3 °C 1013.1 hPa NNW 6.4 km/h 17.7 km/h 86% 0 mm
16:44 -6.3 °C -8.2 °C 1013.1 hPa NNE 4.8 km/h 16.1 km/h 86% 0 mm
16:49 -6.3 °C -8.3 °C 1013.1 hPa NNE 8 km/h 16.1 km/h 86% 0 mm
16:54 -6.3 °C -8.2 °C 1013.1 hPa ENE 6.4 km/h 14.5 km/h 86% 0 mm
16:59 -6.3 °C -8.3 °C 1013.1 hPa NW 14.5 km/h 17.7 km/h 86% 0 mm
17:04 -6.4 °C -8.4 °C 1013.1 hPa North 11.3 km/h 29 km/h 86% 0 mm
17:09 -6.5 °C -8.4 °C 1012.8 hPa North 12.9 km/h 29 km/h 86% 0 mm
17:14 -6.6 °C -8.5 °C 1012.8 hPa North 11.3 km/h 24.1 km/h 86% 0 mm
17:19 -6.6 °C -8.5 °C 1013.1 hPa North 11.3 km/h 24.1 km/h 86% 0 mm
17:24 -6.6 °C -8.5 °C 1013.1 hPa North 4.8 km/h 12.9 km/h 86% 0 mm
17:29 -6.6 °C -8.3 °C 1012.8 hPa NNE 19.3 km/h 20.9 km/h 87% 0 mm
17:34 -6.6 °C -8.6 °C 1012.8 hPa North 9.7 km/h 25.7 km/h 86% 0 mm
17:39 -6.7 °C -8.7 °C 1013.1 hPa NNE 11.3 km/h 16.1 km/h 86% 0 mm
17:44 -6.8 °C -8.6 °C 1013.1 hPa NNW 11.3 km/h 17.7 km/h 87% 0 mm
17:49 -6.8 °C -8.6 °C 1013.1 hPa North 8 km/h 12.9 km/h 87% 0 mm
17:54 -6.9 °C -8.7 °C 1013.1 hPa NNW 9.7 km/h 17.7 km/h 87% 0 mm
17:59 -6.9 °C -8.7 °C 1013.1 hPa NW 8 km/h 17.7 km/h 87% 0 mm
18:04 -7.1 °C -8.8 °C 1013.1 hPa NNW 11.3 km/h 20.9 km/h 87% 0 mm
18:09 -7.1 °C -8.9 °C 1013.1 hPa NNW 11.3 km/h 24.1 km/h 87% 0 mm
18:14 -7.2 °C -8.9 °C 1013.1 hPa NNW 9.7 km/h 24.1 km/h 87% 0 mm
18:19 -7.2 °C -8.9 °C 1013.1 hPa NNW 8 km/h 22.5 km/h 87% 0 mm
18:24 -7.2 °C -9 °C 1013.1 hPa NNW 8 km/h 16.1 km/h 87% 0 mm
18:29 -7.2 °C -9 °C 1013.1 hPa NNW 8 km/h 16.1 km/h 87% 0 mm
18:34 -7.3 °C -9.1 °C 1013.1 hPa NNW 8 km/h 16.1 km/h 87% 0 mm
18:39 -7.3 °C -9.1 °C 1013.1 hPa NNW 9.7 km/h 14.5 km/h 87% 0 mm
18:44 -7.3 °C -9.1 °C 1013.4 hPa NNW 9.7 km/h 24.1 km/h 87% 0 mm
18:49 -7.3 °C -9.1 °C 1013.4 hPa NNW 9.7 km/h 20.9 km/h 87% 0 mm
18:54 -7.4 °C -9.2 °C 1013.4 hPa NNW 3.2 km/h 14.5 km/h 87% 0 mm
18:59 -7.4 °C -9.1 °C 1013.4 hPa WNW 9.7 km/h 19.3 km/h 88% 0 mm
19:04 -7.6 °C -9.3 °C 1013.4 hPa NNW 12.9 km/h 22.5 km/h 87% 0 mm
19:09 -7.7 °C -9.4 °C 1013.4 hPa NNW 9.7 km/h 22.5 km/h 87% 0 mm
19:14 -7.7 °C -9.3 °C 1013.4 hPa NNW 8 km/h 17.7 km/h 88% 0 mm
19:19 -7.8 °C -9.4 °C 1013.4 hPa NNW 8 km/h 17.7 km/h 88% 0 mm
19:24 -7.8 °C -9.4 °C 1013.4 hPa NNW 8 km/h 16.1 km/h 88% 0 mm
19:29 -7.8 °C -9.5 °C 1013.4 hPa NNW 6.4 km/h 16.1 km/h 88% 0 mm
19:34 -7.8 °C -9.5 °C 1013.4 hPa WNW 4.8 km/h 14.5 km/h 88% 0 mm
19:39 -7.9 °C -9.6 °C 1013.4 hPa NNW 8 km/h 19.3 km/h 88% 0 mm
19:44 -7.9 °C -9.6 °C 1013.4 hPa NW 8 km/h 22.5 km/h 88% 0 mm
19:49 -7.9 °C -9.6 °C 1013.4 hPa North 16.1 km/h 20.9 km/h 88% 0 mm
19:54 -7.9 °C -9.6 °C 1013.4 hPa NNW 3.2 km/h 16.1 km/h 88% 0 mm
19:59 -7.9 °C -9.6 °C 1013.4 hPa North 4.8 km/h 14.5 km/h 88% 0 mm
20:04 -8 °C -9.6 °C 1013.8 hPa NNW 6.4 km/h 16.1 km/h 88% 0 mm
20:09 -8 °C -9.6 °C 1013.4 hPa NW 8 km/h 16.1 km/h 88% 0 mm
20:14 -8 °C -9.6 °C 1013.4 hPa NNW 8 km/h 19.3 km/h 88% 0 mm
20:19 -8 °C -9.6 °C 1013.8 hPa NNW 8 km/h 19.3 km/h 88% 0 mm
20:24 -8.1 °C -9.7 °C 1013.4 hPa NNW 8 km/h 17.7 km/h 88% 0 mm
20:29 -8 °C -9.6 °C 1013.8 hPa NNW 8 km/h 17.7 km/h 88% 0 mm
20:34 -8 °C -9.6 °C 1013.4 hPa NW 6.4 km/h 14.5 km/h 88% 0 mm
20:39 -8.1 °C -9.7 °C 1013.4 hPa NW 8 km/h 16.1 km/h 88% 0 mm
20:44 -8.1 °C -9.7 °C 1013.4 hPa NW 8 km/h 16.1 km/h 88% 0 mm
20:49 -8.1 °C -9.7 °C 1013.8 hPa NNW 9.7 km/h 16.1 km/h 88% 0 mm
20:54 -8.1 °C -9.7 °C 1013.8 hPa North 9.7 km/h 12.9 km/h 88% 0 mm
20:59 -8.2 °C -9.8 °C 1013.8 hPa North 4.8 km/h 16.1 km/h 88% 0 mm
21:04 -8.2 °C -9.8 °C 1013.8 hPa NW 9.7 km/h 17.7 km/h 88% 0 mm
21:09 -8.1 °C -9.7 °C 1013.4 hPa NW 3.2 km/h 14.5 km/h 88% 0 mm
21:14 -8.2 °C -9.8 °C 1013.4 hPa North 4.8 km/h 14.5 km/h 88% 0 mm
21:19 -8.2 °C -9.8 °C 1013.4 hPa NNW 6.4 km/h 14.5 km/h 88% 0 mm
21:24 -8.2 °C -9.8 °C 1013.4 hPa NW 8 km/h 17.7 km/h 88% 0 mm
21:29 -8.2 °C -9.8 °C 1013.4 hPa NNW 8 km/h 17.7 km/h 88% 0 mm
21:34 -8.2 °C -9.8 °C 1013.4 hPa NNW 9.7 km/h 17.7 km/h 88% 0 mm
21:39 -8.3 °C -9.9 °C 1013.4 hPa NW 9.7 km/h 20.9 km/h 88% 0 mm
21:44 -8.3 °C -9.9 °C 1013.4 hPa NW 9.7 km/h 22.5 km/h 88% 0 mm
21:49 -8.3 °C -9.9 °C 1013.4 hPa NW 11.3 km/h 17.7 km/h 88% 0 mm
21:54 -8.3 °C -9.9 °C 1013.4 hPa NNW 6.4 km/h 22.5 km/h 88% 0 mm
21:59 -8.3 °C -9.9 °C 1013.1 hPa NNW 6.4 km/h 20.9 km/h 88% 0 mm
22:04 -8.3 °C -9.9 °C 1013.1 hPa North 8 km/h 14.5 km/h 88% 0 mm
22:09 -8.3 °C -9.9 °C 1013.1 hPa NNW 6.4 km/h 12.9 km/h 88% 0 mm
22:14 -8.4 °C -10 °C 1013.1 hPa NNW 9.7 km/h 17.7 km/h 88% 0 mm
22:19 -8.4 °C -10 °C 1013.1 hPa NNW 8 km/h 16.1 km/h 88% 0 mm
22:24 -8.4 °C -10 °C 1013.1 hPa NNW 8 km/h 16.1 km/h 88% 0 mm
22:29 -8.4 °C -10.1 °C 1013.1 hPa NNW 8 km/h 16.1 km/h 88% 0 mm
22:34 -8.4 °C -10.1 °C 1013.1 hPa NNW 9.7 km/h 19.3 km/h 88% 0 mm
22:39 -8.4 °C -10.1 °C 1013.1 hPa NNW 9.7 km/h 22.5 km/h 88% 0 mm
22:44 -8.5 °C -10.1 °C 1012.8 hPa NNW 9.7 km/h 22.5 km/h 88% 0 mm
22:49 -8.5 °C -10.3 °C 1012.8 hPa North 6.4 km/h 27.4 km/h 87% 0 mm
22:54 -8.6 °C -10.2 °C 1012.8 hPa NNW 3.2 km/h 25.7 km/h 88% 0 mm
22:59 -8.6 °C -10.3 °C 1012.8 hPa NNW 8 km/h 25.7 km/h 87% 0 mm
23:04 -8.6 °C -10.4 °C 1012.8 hPa North 9.7 km/h 19.3 km/h 87% 0 mm
23:09 -8.6 °C -10.4 °C 1012.4 hPa NNW 8 km/h 16.1 km/h 87% 0 mm
23:14 -8.6 °C -10.4 °C 1012.4 hPa NNW 3.2 km/h 17.7 km/h 87% 0 mm
23:19 -8.6 °C -10.4 °C 1012.4 hPa NNW 6.4 km/h 17.7 km/h 87% 0 mm
23:24 -8.7 °C -10.4 °C 1012.4 hPa NW 8 km/h 16.1 km/h 87% 0 mm
23:29 -8.7 °C -10.4 °C 1012.4 hPa NNW 8 km/h 20.9 km/h 87% 0 mm
23:34 -8.7 °C -10.4 °C 1012.4 hPa NW 11.3 km/h 22.5 km/h 87% 0 mm
23:39 -8.7 °C -10.4 °C 1012.1 hPa NW 11.3 km/h 22.5 km/h 87% 0 mm
23:44 -8.7 °C -10.5 °C 1012.1 hPa NW 9.7 km/h 19.3 km/h 87% 0 mm
23:49 -8.8 °C -10.6 °C 1012.1 hPa NNW 9.7 km/h 25.7 km/h 87% 0 mm
23:54 -8.8 °C -10.6 °C 1012.1 hPa NNW 11.3 km/h 25.7 km/h 87% 0 mm
23:59 -8.8 °C -10.6 °C 1011.7 hPa WNW 12.9 km/h 16.1 km/h 87% 0 mm
Buffalo, New York, USA
Compliments of Weather Underground - 2.5 mb